Time,TemperatureF,DewpointF,PressureIn,WindDirection,WindDirectionDegrees,WindSpeedMPH,WindSpeedGustMPH,Humidity,HourlyPrecipIn,Conditions,Clouds,dailyrainin,SoftwareType,DateUTC
2013-06-24 00:02:00,71.1,67.6,29.26,SW,225,0.0,0.9,89,-99.99,,,-99.99,WSDL version 420,2013-06-24 04:02:00,
2013-06-24 00:04:00,71.1,67.4,29.26,SW,225,0.0,0.9,88,0.00,,,0.00,WSDL version 420,2013-06-24 04:04:00,
2013-06-24 00:07:00,71.1,67.3,29.26,SW,225,0.0,0.0,88,0.00,,,0.00,WSDL version 420,2013-06-24 04:07:00,
2013-06-24 00:08:00,71.1,67.3,29.26,SW,225,0.0,0.0,88,0.00,,,0.00,WSDL version 420,2013-06-24 04:08:00,
2013-06-24 00:11:00,71.1,67.3,29.26,SW,225,0.0,0.0,88,0.00,,,0.00,WSDL version 420,2013-06-24 04:11:00,
2013-06-24 00:16:00,71.2,67.1,29.26,SW,225,0.0,0.0,87,0.00,,,0.00,WSDL version 420,2013-06-24 04:16:00,
2013-06-24 00:21:00,71.2,67.1,29.26,SW,225,0.0,0.0,87,0.00,,,0.00,WSDL version 420,2013-06-24 04:21:00,
2013-06-24 00:27:00,71.3,67.3,29.26,SW,216,0.0,0.0,88,0.00,,,0.00,WSDL version 420,2013-06-24 04:27:00,
2013-06-24 00:33:00,71.5,67.7,29.26,SW,222,0.0,0.0,88,-99.99,,,-99.99,WSDL version 420,2013-06-24 04:33:00,
2013-06-24 00:39:00,71.6,67.8,29.26,SSW,203,0.0,1.3,88,0.00,,,0.00,WSDL version 420,2013-06-24 04:39:00,
2013-06-24 00:45:00,71.8,67.6,29.29,SW,225,0.0,1.3,87,0.00,,,0.00,WSDL version 420,2013-06-24 04:45:00,
2013-06-24 00:50:00,71.8,67.6,29.29,SW,233,0.0,0.9,87,0.00,,,0.00,WSDL version 420,2013-06-24 04:50:00,
2013-06-24 00:57:00,71.8,67.2,29.26,WSW,243,0.0,1.6,86,0.00,,,0.00,WSDL version 420,2013-06-24 04:57:00,
2013-06-24 01:03:00,71.8,67.2,29.26,SW,235,0.0,1.6,86,0.00,,,0.00,WSDL version 420,2013-06-24 05:03:00,
2013-06-24 01:08:00,71.8,67.2,29.26,WSW,241,0.0,1.6,86,0.00,,,0.00,WSDL version 420,2013-06-24 05:08:00,
2013-06-24 01:14:00,71.8,67.0,29.26,SW,225,0.0,0.0,84,0.00,,,0.00,WSDL version 420,2013-06-24 05:14:00,
2013-06-24 01:23:00,71.8,66.8,29.26,SW,225,0.0,0.0,84,0.00,,,0.00,WSDL version 420,2013-06-24 05:23:00,
2013-06-24 01:29:00,71.8,66.8,29.26,SW,230,0.0,0.0,84,0.00,,,0.00,WSDL version 420,2013-06-24 05:29:00,
2013-06-24 01:34:00,71.8,66.8,-100.00,SW,225,0.0,0.0,84,0.00,,,0.00,WSDL version 420,2013-06-24 05:34:00,
2013-06-24 01:41:00,71.8,67.2,29.23,SW,220,0.0,0.0,86,0.00,,,0.00,WSDL version 420,2013-06-24 05:41:00,
2013-06-24 01:47:00,71.8,67.2,29.23,SSW,212,0.0,0.0,86,0.00,,,0.00,WSDL version 420,2013-06-24 05:47:00,
2013-06-24 01:53:00,71.8,67.0,29.23,SW,225,0.0,0.0,86,0.00,,,0.00,WSDL version 420,2013-06-24 05:53:00,
2013-06-24 02:00:00,71.7,67.1,29.26,SSW,209,0.0,0.0,86,-99.99,,,-99.99,WSDL version 420,2013-06-24 06:00:00,
2013-06-24 02:06:00,71.6,67.0,29.26,SW,225,0.0,0.0,86,0.00,,,0.00,WSDL version 420,2013-06-24 06:06:00,
2013-06-24 02:12:00,71.6,67.0,29.26,SW,219,0.0,0.0,86,-99.99,,,-99.99,WSDL version 420,2013-06-24 06:12:00,
2013-06-24 02:18:00,71.6,67.0,29.26,SW,214,0.0,2.0,86,-99.99,,,-99.99,WSDL version 420,2013-06-24 06:18:00,
2013-06-24 02:24:00,71.6,67.0,29.26,SW,225,0.0,0.0,86,0.00,,,0.00,WSDL version 420,2013-06-24 06:24:00,
2013-06-24 02:32:00,71.4,66.9,-100.00,SW,221,0.0,0.0,86,0.00,,,0.00,WSDL version 420,2013-06-24 06:32:00,
2013-06-24 02:37:00,71.3,67.0,29.23,SW,221,0.0,0.0,87,0.00,,,0.00,WSDL version 420,2013-06-24 06:37:00,
2013-06-24 02:46:00,71.2,67.1,29.23,SW,225,0.0,0.0,87,0.00,,,0.00,WSDL version 420,2013-06-24 06:46:00,
2013-06-24 02:52:00,71.2,67.4,29.23,SW,214,0.0,0.9,88,0.00,,,0.00,WSDL version 420,2013-06-24 06:52:00,
2013-06-24 02:58:00,71.2,67.3,29.21,SW,218,0.2,2.5,88,0.00,,,0.00,WSDL version 420,2013-06-24 06:58:00,
2013-06-24 03:04:00,71.1,67.3,-100.00,SW,225,0.0,2.5,88,0.00,,,0.00,WSDL version 420,2013-06-24 07:04:00,
2013-06-24 03:10:00,71.1,67.3,29.21,SW,221,0.0,0.0,88,0.00,,,0.00,WSDL version 420,2013-06-24 07:10:00,
2013-06-24 03:16:00,71.1,67.3,29.21,SSW,203,0.0,0.0,88,0.00,,,0.00,WSDL version 420,2013-06-24 07:16:00,
2013-06-24 03:22:00,71.1,67.3,29.21,SW,225,0.0,0.0,88,0.00,,,0.00,WSDL version 420,2013-06-24 07:22:00,
2013-06-24 03:30:00,70.9,67.1,29.23,SW,225,0.6,3.8,88,0.00,,,0.00,WSDL version 420,2013-06-24 07:30:00,
2013-06-24 03:37:00,70.9,67.1,29.23,SW,225,0.0,3.8,88,0.00,,,0.00,WSDL version 420,2013-06-24 07:37:00,
2013-06-24 03:47:00,70.7,67.0,29.23,WSW,240,0.0,0.0,89,0.00,,,0.00,WSDL version 420,2013-06-24 07:47:00,
2013-06-24 03:55:00,70.7,67.3,29.23,SW,225,0.0,0.0,89,-99.99,,,-99.99,WSDL version 420,2013-06-24 07:55:00,
2013-06-24 04:04:00,70.7,67.1,29.23,SW,215,0.0,0.0,88,0.00,,,0.00,WSDL version 420,2013-06-24 08:04:00,
2013-06-24 04:10:00,70.5,66.7,29.23,SW,214,0.0,0.0,88,0.00,,,0.00,WSDL version 420,2013-06-24 08:10:00,
2013-06-24 04:16:00,70.5,66.7,29.23,SW,222,0.0,0.0,88,0.00,,,0.00,WSDL version 420,2013-06-24 08:16:00,
2013-06-24 04:22:00,70.5,66.7,29.23,SW,225,0.0,0.0,88,-99.99,,,-99.99,WSDL version 420,2013-06-24 08:22:00,
2013-06-24 04:27:00,70.5,66.7,29.21,SSW,203,0.0,0.0,88,0.00,,,0.00,WSDL version 420,2013-06-24 08:27:00,
2013-06-24 04:33:00,70.4,66.6,29.21,SW,221,0.0,0.0,88,0.00,,,0.00,WSDL version 420,2013-06-24 08:33:00,
2013-06-24 04:40:00,70.3,66.5,29.23,SSW,203,0.0,0.0,88,0.00,,,0.00,WSDL version 420,2013-06-24 08:40:00,
2013-06-24 04:49:00,70.3,66.5,29.23,SSW,203,0.0,0.0,88,0.00,,,0.00,WSDL version 420,2013-06-24 08:49:00,
2013-06-24 04:55:00,70.2,66.4,29.23,SW,225,0.0,0.0,88,0.00,,,0.00,WSDL version 420,2013-06-24 08:55:00,
2013-06-24 05:00:00,70.2,66.4,29.23,SW,225,0.0,0.0,88,-99.99,,,-99.99,WSDL version 420,2013-06-24 09:00:00,
2013-06-24 05:10:00,70.3,66.5,29.23,SW,216,0.0,2.7,88,0.00,,,0.00,WSDL version 420,2013-06-24 09:10:00,
2013-06-24 05:16:00,70.2,66.4,29.23,SW,225,0.0,0.0,88,0.00,,,0.00,WSDL version 420,2013-06-24 09:16:00,
2013-06-24 05:23:00,70.0,66.2,29.23,SW,225,0.0,0.0,88,-99.99,,,-99.99,WSDL version 420,2013-06-24 09:23:00,
2013-06-24 05:29:00,69.8,66.0,29.23,SW,225,0.0,0.0,88,0.00,,,0.00,WSDL version 420,2013-06-24 09:29:00,
2013-06-24 05:37:00,69.7,66.2,29.23,SW,225,0.0,0.0,89,-99.99,,,-99.99,WSDL version 420,2013-06-24 09:37:00,
2013-06-24 05:44:00,69.8,66.4,-100.00,SW,225,0.0,0.0,89,0.00,,,0.00,WSDL version 420,2013-06-24 09:44:00,
2013-06-24 05:50:00,69.9,66.4,29.23,SSW,203,0.0,0.9,89,0.00,,,0.00,WSDL version 420,2013-06-24 09:50:00,
2013-06-24 05:56:00,70.0,66.6,29.26,SSW,203,0.0,0.9,89,-99.99,,,-99.99,WSDL version 420,2013-06-24 09:56:00,
2013-06-24 06:02:00,70.0,66.6,-100.00,SSW,203,0.0,0.0,89,0.00,,,0.00,WSDL version 420,2013-06-24 10:02:00,
2013-06-24 06:08:00,70.2,66.7,29.26,SSW,203,0.0,0.0,89,0.00,,,0.00,WSDL version 420,2013-06-24 10:08:00,
2013-06-24 06:13:00,70.2,66.6,29.26,SW,225,0.0,0.0,88,0.00,,,0.00,WSDL version 420,2013-06-24 10:13:00,
2013-06-24 06:19:00,70.2,66.4,29.26,SW,225,0.0,0.0,88,-99.99,,,-99.99,WSDL version 420,2013-06-24 10:19:00,
2013-06-24 06:25:00,70.3,66.9,29.26,SW,225,0.0,0.0,89,0.00,,,0.00,WSDL version 420,2013-06-24 10:25:00,
2013-06-24 06:31:00,70.5,66.8,29.26,SW,225,0.0,0.0,88,-99.99,,,-99.99,WSDL version 420,2013-06-24 10:31:00,
2013-06-24 06:37:00,70.7,66.9,29.26,SSW,203,0.0,0.0,88,-99.99,,,-99.99,WSDL version 420,2013-06-24 10:37:00,
2013-06-24 06:45:00,70.9,67.1,29.26,SW,225,0.0,1.6,88,0.00,,,0.00,WSDL version 420,2013-06-24 10:45:00,
2013-06-24 06:54:00,71.1,67.3,29.26,SSW,203,0.0,0.0,88,0.00,,,0.00,WSDL version 420,2013-06-24 10:54:00,
2013-06-24 07:00:00,71.3,67.5,29.26,SSW,194,0.0,0.0,88,0.00,,,0.00,WSDL version 420,2013-06-24 11:00:00,
2013-06-24 07:07:00,71.7,67.5,29.26,SSW,203,0.0,0.9,87,0.00,,,0.00,WSDL version 420,2013-06-24 11:07:00,
2013-06-24 07:13:00,72.0,67.4,29.26,SSW,203,0.0,2.2,86,0.00,,,0.00,WSDL version 420,2013-06-24 11:13:00,
2013-06-24 07:19:00,72.2,67.5,29.26,SSW,203,0.0,2.2,84,0.00,,,0.00,WSDL version 420,2013-06-24 11:19:00,
2013-06-24 07:29:00,73.0,67.5,-100.00,SW,225,0.0,1.6,82,0.00,,,0.00,WSDL version 420,2013-06-24 11:29:00,
2013-06-24 07:36:00,73.4,66.9,29.26,SSW,210,0.0,1.6,80,0.00,,,0.00,WSDL version 420,2013-06-24 11:36:00,
2013-06-24 07:44:00,73.6,67.0,29.26,SSW,203,0.0,0.9,80,0.00,,,0.00,WSDL version 420,2013-06-24 11:44:00,
2013-06-24 07:50:00,73.7,67.1,29.26,SW,219,0.0,2.0,80,0.00,,,0.00,WSDL version 420,2013-06-24 11:50:00,
2013-06-24 07:58:00,73.8,66.8,29.26,SW,218,0.0,1.1,79,0.00,,,0.00,WSDL version 420,2013-06-24 11:58:00,
2013-06-24 08:05:00,73.8,66.8,29.26,SW,225,0.0,1.6,79,0.00,,,0.00,WSDL version 420,2013-06-24 12:05:00,
2013-06-24 08:11:00,74.2,66.9,29.26,West,260,0.1,2.0,78,0.00,,,0.00,WSDL version 420,2013-06-24 12:11:00,
2013-06-24 08:18:00,75.1,67.6,29.26,SW,225,0.0,2.0,77,0.00,,,0.00,WSDL version 420,2013-06-24 12:18:00,
2013-06-24 08:26:00,76.0,67.3,29.26,SSW,208,0.7,0.9,74,0.00,,,0.00,WSDL version 420,2013-06-24 12:26:00,
2013-06-24 08:31:00,76.9,67.2,29.26,SW,215,0.1,0.9,72,0.00,,,0.00,WSDL version 420,2013-06-24 12:31:00,
2013-06-24 08:37:00,77.4,67.3,29.26,SW,234,0.8,2.2,70,0.00,,,0.00,WSDL version 420,2013-06-24 12:37:00,
2013-06-24 08:43:00,78.3,67.5,29.26,SW,214,0.6,2.7,69,0.00,,,0.00,WSDL version 420,2013-06-24 12:43:00,
2013-06-24 08:49:00,78.9,67.3,29.26,SW,216,0.4,2.7,67,0.00,,,0.00,WSDL version 420,2013-06-24 12:49:00,
2013-06-24 08:57:00,80.7,67.7,29.26,SSW,196,0.1,2.9,65,0.00,,,0.00,WSDL version 420,2013-06-24 12:57:00,
2013-06-24 09:03:00,82.3,68.1,29.26,SW,222,0.0,2.9,62,0.00,,,0.00,WSDL version 420,2013-06-24 13:03:00,
2013-06-24 09:09:00,83.9,68.8,29.26,SW,225,0.0,2.0,60,0.00,,,0.00,WSDL version 420,2013-06-24 13:09:00,
2013-06-24 09:15:00,85.0,68.9,29.26,SSW,207,0.4,1.1,56,-99.99,,,-99.99,WSDL version 420,2013-06-24 13:15:00,
2013-06-24 09:21:00,85.8,66.2,29.26,WSW,248,1.1,2.2,50,-99.99,,,-99.99,WSDL version 420,2013-06-24 13:21:00,
2013-06-24 09:29:00,86.2,65.4,29.26,SW,228,1.0,2.2,50,0.00,,,0.00,WSDL version 420,2013-06-24 13:29:00,
2013-06-24 09:34:00,86.2,64.8,29.26,SW,216,0.0,2.2,50,0.00,,,0.00,WSDL version 420,2013-06-24 13:34:00,
2013-06-24 09:42:00,86.5,65.7,29.26,SW,225,0.0,0.0,50,0.00,,,0.00,WSDL version 420,2013-06-24 13:42:00,
2013-06-24 09:48:00,87.3,66.2,29.26,SSW,203,0.0,0.0,50,0.00,,,0.00,WSDL version 420,2013-06-24 13:48:00,
2013-06-24 09:54:00,87.5,64.9,29.26,SW,215,0.0,0.0,47,0.00,,,0.00,WSDL version 420,2013-06-24 13:54:00,
2013-06-24 10:00:00,86.7,63.9,29.26,SW,219,0.0,0.0,46,0.00,,,0.00,WSDL version 420,2013-06-24 14:00:00,
2013-06-24 10:06:00,86.5,64.7,29.26,SW,225,0.0,0.0,49,0.00,,,0.00,WSDL version 420,2013-06-24 14:06:00,
2013-06-24 10:12:00,87.0,64.9,29.26,SW,225,0.0,2.9,49,0.00,,,0.00,WSDL version 420,2013-06-24 14:12:00,
2013-06-24 10:18:00,87.1,65.9,29.26,SW,219,0.0,2.9,50,-99.99,,,-99.99,WSDL version 420,2013-06-24 14:18:00,
2013-06-24 10:24:00,86.8,64.9,29.26,SW,218,0.7,2.5,47,0.00,,,0.00,WSDL version 420,2013-06-24 14:24:00,
2013-06-24 10:29:00,86.1,64.3,29.26,SSW,203,0.0,2.5,49,0.00,,,0.00,WSDL version 420,2013-06-24 14:29:00,
2013-06-24 10:35:00,86.0,65.0,29.26,SSW,203,0.0,0.0,50,0.00,,,0.00,WSDL version 420,2013-06-24 14:35:00,
2013-06-24 10:42:00,87.8,66.9,29.26,SSW,206,0.0,0.0,50,0.00,,,0.00,WSDL version 420,2013-06-24 14:42:00,
2013-06-24 10:48:00,88.2,66.5,29.26,SW,214,0.0,2.0,49,0.00,,,0.00,WSDL version 420,2013-06-24 14:48:00,
2013-06-24 10:54:00,89.7,64.5,29.26,SSW,203,1.0,3.4,43,-99.99,,,-99.99,WSDL version 420,2013-06-24 14:54:00,
2013-06-24 11:00:00,90.5,65.0,29.26,South,169,0.0,3.4,43,-99.99,,,-99.99,WSDL version 420,2013-06-24 15:00:00,
2013-06-24 11:05:00,91.3,65.9,29.26,SW,218,0.3,2.5,43,-99.99,,,-99.99,WSDL version 420,2013-06-24 15:05:00,
2013-06-24 11:11:00,92.4,64.2,29.26,SW,225,0.4,2.5,39,0.00,,,0.00,WSDL version 420,2013-06-24 15:11:00,
2013-06-24 11:17:00,92.2,63.6,29.26,SW,223,0.0,3.6,39,0.00,,,0.00,WSDL version 420,2013-06-24 15:17:00,
2013-06-24 11:23:00,92.5,63.4,29.26,WSW,240,0.9,3.6,38,0.00,,,0.00,WSDL version 420,2013-06-24 15:23:00,
2013-06-24 11:30:00,93.2,64.6,29.26,SSW,206,0.0,2.0,39,0.00,,,0.00,WSDL version 420,2013-06-24 15:30:00,
2013-06-24 11:36:00,93.6,63.6,29.26,SSW,206,2.0,3.1,36,0.00,,,0.00,WSDL version 420,2013-06-24 15:36:00,
2013-06-24 11:44:00,95.2,65.1,29.26,SSW,195,0.6,3.1,37,0.00,,,0.00,WSDL version 420,2013-06-24 15:44:00,
2013-06-24 11:53:00,94.2,60.4,29.26,NW,311,0.4,3.6,33,0.00,,,0.00,WSDL version 420,2013-06-24 15:53:00,
2013-06-24 11:59:00,93.9,59.3,29.26,West,276,0.0,3.4,32,0.00,,,0.00,WSDL version 420,2013-06-24 15:59:00,
2013-06-24 12:05:00,92.8,59.5,29.26,West,278,0.9,2.9,33,0.00,,,0.00,WSDL version 420,2013-06-24 16:05:00,
2013-06-24 12:12:00,91.2,61.3,29.26,West,281,0.0,2.9,37,0.00,,,0.00,WSDL version 420,2013-06-24 16:12:00,
2013-06-24 12:18:00,91.4,61.5,29.26,SW,228,0.0,1.3,37,0.00,,,0.00,WSDL version 420,2013-06-24 16:18:00,
2013-06-24 12:23:00,91.6,60.9,29.26,SW,221,0.0,2.2,35,0.00,,,0.00,WSDL version 420,2013-06-24 16:23:00,
2013-06-24 12:29:00,92.7,62.3,29.26,WNW,293,0.0,2.2,36,0.00,,,0.00,WSDL version 420,2013-06-24 16:29:00,
2013-06-24 12:35:00,93.6,61.8,29.26,WNW,283,1.5,4.0,34,-99.99,,,-99.99,WSDL version 420,2013-06-24 16:35:00,
2013-06-24 12:41:00,94.1,61.2,-100.00,West,261,0.0,4.0,35,0.00,,,0.00,WSDL version 420,2013-06-24 16:41:00,
2013-06-24 12:47:00,95.1,60.6,29.26,NNW,329,0.8,3.4,31,-99.99,,,-99.99,WSDL version 420,2013-06-24 16:47:00,
2013-06-24 12:53:00,95.2,59.2,29.26,SSE,158,1.3,3.4,30,0.00,,,0.00,WSDL version 420,2013-06-24 16:53:00,
2013-06-24 13:00:00,95.8,59.5,29.26,West,275,0.4,3.6,30,0.00,,,0.00,WSDL version 420,2013-06-24 17:00:00,
2013-06-24 13:06:00,96.4,59.9,29.26,WNW,300,0.0,2.5,30,0.00,,,0.00,WSDL version 420,2013-06-24 17:06:00,
2013-06-24 13:16:00,96.5,58.1,29.23,NW,321,1.1,2.9,28,0.00,,,0.00,WSDL version 420,2013-06-24 17:16:00,
2013-06-24 13:23:00,97.3,59.1,29.23,SW,233,0.6,2.7,28,0.00,,,0.00,WSDL version 420,2013-06-24 17:23:00,
2013-06-24 13:29:00,96.6,58.2,29.23,NNW,341,0.0,1.6,28,0.00,,,0.00,WSDL version 420,2013-06-24 17:29:00,
2013-06-24 13:35:00,96.7,58.3,29.23,SSW,206,0.0,0.9,28,0.00,,,0.00,WSDL version 420,2013-06-24 17:35:00,
2013-06-24 13:41:00,97.5,59.3,29.21,SW,214,0.0,1.3,28,0.00,,,0.00,WSDL version 420,2013-06-24 17:41:00,
2013-06-24 13:49:00,96.4,57.4,29.21,West,274,0.0,3.1,28,0.00,,,0.00,WSDL version 420,2013-06-24 17:49:00,
2013-06-24 13:56:00,95.0,57.0,29.21,SSW,208,0.0,1.3,28,0.00,,,0.00,WSDL version 420,2013-06-24 17:56:00,
2013-06-24 14:04:00,94.0,56.0,29.21,North,349,0.0,2.9,28,0.00,,,0.00,WSDL version 420,2013-06-24 18:04:00,
2013-06-24 14:09:00,93.7,55.7,29.21,NW,319,0.3,2.5,28,0.00,,,0.00,WSDL version 420,2013-06-24 18:09:00,
2013-06-24 14:15:00,93.2,55.8,29.21,NNW,334,0.0,2.2,29,0.00,,,0.00,WSDL version 420,2013-06-24 18:15:00,
2013-06-24 14:21:00,92.7,55.8,29.21,North,357,1.8,3.8,29,0.00,,,0.00,WSDL version 420,2013-06-24 18:21:00,
2013-06-24 14:27:00,92.1,55.8,29.21,North,350,0.6,3.8,29,0.00,,,0.00,WSDL version 420,2013-06-24 18:27:00,
2013-06-24 14:32:00,91.9,56.1,29.21,WNW,289,0.3,3.6,30,0.00,,,0.00,WSDL version 420,2013-06-24 18:32:00,
2013-06-24 14:41:00,91.9,56.6,29.21,West,276,0.0,2.0,31,0.00,,,0.00,WSDL version 420,2013-06-24 18:41:00,
2013-06-24 14:46:00,91.9,56.0,29.21,SW,231,1.9,3.6,30,0.00,,,0.00,WSDL version 420,2013-06-24 18:46:00,
2013-06-24 14:52:00,91.7,56.4,29.21,West,280,0.0,3.6,31,0.00,,,0.00,WSDL version 420,2013-06-24 18:52:00,
2013-06-24 14:58:00,91.2,55.5,29.21,North,3,2.1,3.8,30,0.00,,,0.00,WSDL version 420,2013-06-24 18:58:00,
2013-06-24 15:04:00,91.0,55.3,29.21,NW,309,0.0,3.8,30,0.00,,,0.00,WSDL version 420,2013-06-24 19:04:00,
2013-06-24 15:12:00,90.3,53.8,29.21,NW,312,1.6,3.8,29,0.00,,,0.00,WSDL version 420,2013-06-24 19:12:00,
2013-06-24 15:18:00,89.9,53.4,29.21,WNW,295,2.5,4.9,29,0.00,,,0.00,WSDL version 420,2013-06-24 19:18:00,
2013-06-24 15:25:00,89.8,53.3,29.21,NW,309,0.0,4.7,29,0.00,,,0.00,WSDL version 420,2013-06-24 19:25:00,
2013-06-24 15:31:00,89.6,54.1,29.21,NNW,347,1.0,3.1,30,0.00,,,0.00,WSDL version 420,2013-06-24 19:31:00,
2013-06-24 15:37:00,89.7,54.2,29.21,NNW,338,0.6,3.1,30,-99.99,,,-99.99,WSDL version 420,2013-06-24 19:37:00,
2013-06-24 15:43:00,90.1,54.6,29.21,West,266,0.6,2.7,30,0.00,,,0.00,WSDL version 420,2013-06-24 19:43:00,
2013-06-24 15:49:00,89.8,54.2,29.21,West,270,0.6,3.4,30,0.00,,,0.00,WSDL version 420,2013-06-24 19:49:00,
2013-06-24 15:55:00,89.7,53.9,29.18,WNW,300,0.4,2.5,30,0.00,,,0.00,WSDL version 420,2013-06-24 19:55:00,
2013-06-24 16:02:00,90.0,54.5,29.18,NW,325,0.9,2.9,30,0.00,,,0.00,WSDL version 420,2013-06-24 20:02:00,
2013-06-24 16:10:00,89.4,53.9,29.18,NW,313,0.9,3.6,30,0.00,,,0.00,WSDL version 420,2013-06-24 20:10:00,
2013-06-24 16:17:00,89.2,53.8,29.18,NNW,330,0.6,2.7,30,-99.99,,,-99.99,WSDL version 420,2013-06-24 20:17:00,
2013-06-24 16:23:00,89.2,54.2,29.18,NW,311,0.0,2.9,30,0.00,,,0.00,WSDL version 420,2013-06-24 20:23:00,
2013-06-24 16:29:00,89.4,54.8,29.18,NW,319,0.4,3.1,31,0.00,,,0.00,WSDL version 420,2013-06-24 20:29:00,
2013-06-24 16:35:00,89.7,55.1,29.18,NW,321,0.6,3.1,31,0.00,,,0.00,WSDL version 420,2013-06-24 20:35:00,
2013-06-24 16:41:00,90.1,55.4,29.18,WSW,244,0.3,2.0,31,0.00,,,0.00,WSDL version 420,2013-06-24 20:41:00,
2013-06-24 16:48:00,90.3,55.6,29.18,WNW,286,0.1,2.5,31,-99.99,,,-99.99,WSDL version 420,2013-06-24 20:48:00,
2013-06-24 16:54:00,90.4,55.7,29.18,North,349,0.0,1.6,31,0.00,,,0.00,WSDL version 420,2013-06-24 20:54:00,
2013-06-24 17:00:00,90.2,55.8,29.18,NNW,338,0.0,1.6,31,-99.99,,,-99.99,WSDL version 420,2013-06-24 21:00:00,
2013-06-24 17:08:00,89.3,55.6,29.18,WSW,244,0.6,2.2,32,0.00,,,0.00,WSDL version 420,2013-06-24 21:08:00,
2013-06-24 17:14:00,89.0,55.3,29.15,NNW,338,0.7,2.2,32,0.00,,,0.00,WSDL version 420,2013-06-24 21:14:00,
2013-06-24 17:23:00,88.5,55.8,29.15,North,10,0.1,2.2,33,-99.99,,,-99.99,WSDL version 420,2013-06-24 21:23:00,
2013-06-24 17:29:00,88.3,55.1,29.15,NW,326,2.3,4.0,32,0.00,,,0.00,WSDL version 420,2013-06-24 21:29:00,
2013-06-24 17:42:00,88.0,56.1,29.15,NNW,334,0.9,3.1,34,0.00,,,0.00,WSDL version 420,2013-06-24 21:42:00,
2013-06-24 17:48:00,87.8,56.0,29.15,NNE,26,1.3,3.1,34,0.00,,,0.00,WSDL version 420,2013-06-24 21:48:00,
2013-06-24 17:54:00,87.5,57.3,29.15,NNW,328,0.0,2.9,36,0.00,,,0.00,WSDL version 420,2013-06-24 21:54:00,
2013-06-24 18:05:00,87.1,56.9,29.15,NNW,344,0.4,2.7,36,0.00,,,0.00,WSDL version 420,2013-06-24 22:05:00,
2013-06-24 18:11:00,87.0,56.9,29.15,NNW,334,0.4,2.0,36,0.00,,,0.00,WSDL version 420,2013-06-24 22:11:00,
2013-06-24 18:19:00,86.7,57.7,-100.00,NNW,338,0.7,2.0,38,0.00,,,0.00,WSDL version 420,2013-06-24 22:19:00,
2013-06-24 18:25:00,86.7,58.1,29.15,North,356,0.4,2.0,38,0.00,,,0.00,WSDL version 420,2013-06-24 22:25:00,
2013-06-24 18:31:00,86.9,58.3,29.15,NNW,331,0.9,2.2,38,0.00,,,0.00,WSDL version 420,2013-06-24 22:31:00,
2013-06-24 18:37:00,86.7,58.1,29.15,NNW,345,1.3,2.7,38,0.00,,,0.00,WSDL version 420,2013-06-24 22:37:00,
2013-06-24 18:45:00,86.5,57.6,-100.00,NNW,334,1.6,3.4,37,0.00,,,0.00,WSDL version 420,2013-06-24 22:45:00,
2013-06-24 18:52:00,85.8,55.8,-100.00,NW,326,0.0,3.4,36,0.00,,,0.00,WSDL version 420,2013-06-24 22:52:00,
2013-06-24 19:01:00,85.3,55.3,29.15,NNW,338,0.0,0.9,36,0.00,,,0.00,WSDL version 420,2013-06-24 23:01:00,
2013-06-24 19:07:00,84.9,55.0,-100.00,West,259,0.0,0.0,36,0.00,,,0.00,WSDL version 420,2013-06-24 23:07:00,
2013-06-24 19:13:00,84.5,54.6,29.15,SSW,203,0.0,0.0,36,0.00,,,0.00,WSDL version 420,2013-06-24 23:13:00,
2013-06-24 19:20:00,84.2,55.1,29.15,SSW,203,0.0,0.0,37,0.00,,,0.00,WSDL version 420,2013-06-24 23:20:00,
2013-06-24 19:26:00,84.0,55.4,29.18,SSW,203,0.0,0.0,38,0.00,,,0.00,WSDL version 420,2013-06-24 23:26:00,
2013-06-24 19:32:00,83.8,55.5,29.18,SW,218,0.0,0.0,38,-99.99,,,-99.99,WSDL version 420,2013-06-24 23:32:00,
2013-06-24 19:39:00,83.3,54.3,29.18,SW,225,0.0,0.0,37,0.00,,,0.00,WSDL version 420,2013-06-24 23:39:00,
2013-06-24 19:45:00,83.0,54.1,29.18,SW,225,0.0,0.0,37,-99.99,,,-99.99,WSDL version 420,2013-06-24 23:45:00,
2013-06-24 19:55:00,82.6,53.8,29.15,SW,225,0.0,0.0,37,0.00,,,0.00,WSDL version 420,2013-06-24 23:55:00,
2013-06-24 20:00:00,82.3,53.4,29.15,SW,225,0.0,0.0,37,0.00,,,0.00,WSDL version 420,2013-06-25 00:00:00,
2013-06-24 20:06:00,82.0,53.7,29.15,SW,225,0.0,0.0,38,0.00,,,0.00,WSDL version 420,2013-06-25 00:06:00,
2013-06-24 20:16:00,81.1,53.2,29.15,SW,225,0.0,0.0,38,0.00,,,0.00,WSDL version 420,2013-06-25 00:16:00,
2013-06-24 20:25:00,80.6,52.7,29.18,SW,225,0.0,0.0,38,0.00,,,0.00,WSDL version 420,2013-06-25 00:25:00,
2013-06-24 20:35:00,80.1,52.9,29.18,SW,225,0.0,0.0,39,0.00,,,0.00,WSDL version 420,2013-06-25 00:35:00,
2013-06-24 20:42:00,79.5,53.1,29.15,SW,225,0.0,0.0,40,0.00,,,0.00,WSDL version 420,2013-06-25 00:42:00,
2013-06-24 20:52:00,79.3,52.9,29.15,SW,225,0.0,0.0,40,0.00,,,0.00,WSDL version 420,2013-06-25 00:52:00,
2013-06-24 20:57:00,79.1,52.7,29.15,SW,225,0.0,0.0,40,0.00,,,0.00,WSDL version 420,2013-06-25 00:57:00,
2013-06-24 21:05:00,78.7,52.6,29.15,SW,225,0.0,0.0,41,0.00,,,0.00,WSDL version 420,2013-06-25 01:05:00,
2013-06-24 21:16:00,78.3,53.1,29.15,SW,225,0.0,0.0,42,0.00,,,0.00,WSDL version 420,2013-06-25 01:16:00,
2013-06-24 21:22:00,77.9,53.0,29.15,SW,225,0.0,0.0,42,0.00,,,0.00,WSDL version 420,2013-06-25 01:22:00,
2013-06-24 21:28:00,77.5,53.3,29.18,SW,225,0.0,0.0,44,-99.99,,,-99.99,WSDL version 420,2013-06-25 01:28:00,
2013-06-24 21:37:00,76.8,54.5,29.18,NNW,338,0.0,0.0,46,-99.99,,,-99.99,WSDL version 420,2013-06-25 01:37:00,
2013-06-24 21:43:00,76.5,54.8,29.18,NNW,338,0.0,0.0,47,0.00,,,0.00,WSDL version 420,2013-06-25 01:43:00,
2013-06-24 21:52:00,75.8,54.8,29.18,ESE,113,0.0,0.0,48,-99.99,,,-99.99,WSDL version 420,2013-06-25 01:52:00,
2013-06-24 21:58:00,75.5,55.0,29.18,SSE,149,0.0,0.0,49,0.00,,,0.00,WSDL version 420,2013-06-25 01:58:00,
2013-06-24 22:03:00,75.1,54.9,29.18,East,90,0.0,0.0,49,0.00,,,0.00,WSDL version 420,2013-06-25 02:03:00,
2013-06-24 22:09:00,74.8,54.9,29.18,East,90,0.0,0.0,50,0.00,,,0.00,WSDL version 420,2013-06-25 02:09:00,
2013-06-24 22:16:00,74.6,55.3,-100.00,East,90,0.0,0.0,51,0.00,,,0.00,WSDL version 420,2013-06-25 02:16:00,
2013-06-24 22:26:00,73.8,55.6,29.21,SSW,199,0.0,0.0,53,0.00,,,0.00,WSDL version 420,2013-06-25 02:26:00,
2013-06-24 22:32:00,73.7,56.5,29.21,SSW,203,0.0,0.0,55,0.00,,,0.00,WSDL version 420,2013-06-25 02:32:00,
2013-06-24 22:38:00,73.5,57.8,29.21,SSW,203,0.0,0.0,58,0.00,,,0.00,WSDL version 420,2013-06-25 02:38:00,
2013-06-24 22:44:00,73.3,58.1,29.18,SSW,203,0.0,0.0,60,0.00,,,0.00,WSDL version 420,2013-06-25 02:44:00,
2013-06-24 22:50:00,73.0,58.8,29.18,SSW,203,0.0,0.9,61,0.00,,,0.00,WSDL version 420,2013-06-25 02:50:00,
2013-06-24 22:56:00,72.9,58.9,29.18,SSW,203,0.0,0.9,62,0.00,,,0.00,WSDL version 420,2013-06-25 02:56:00,
2013-06-24 23:02:00,72.7,58.9,29.18,SW,221,0.0,1.3,62,-99.99,,,-99.99,WSDL version 420,2013-06-25 03:02:00,
2013-06-24 23:08:00,72.5,59.1,29.18,SW,225,0.0,1.3,63,-99.99,,,-99.99,WSDL version 420,2013-06-25 03:08:00,
2013-06-24 23:14:00,72.3,59.0,29.18,SW,225,0.0,0.0,63,0.00,,,0.00,WSDL version 420,2013-06-25 03:14:00,
2013-06-24 23:20:00,72.2,59.2,29.18,SSW,203,0.0,0.0,64,-99.99,,,-99.99,WSDL version 420,2013-06-25 03:20:00,
2013-06-24 23:26:00,72.1,59.3,29.21,SW,216,0.0,0.0,64,0.00,,,0.00,WSDL version 420,2013-06-25 03:26:00,
2013-06-24 23:38:00,72.3,61.2,29.21,WSW,239,0.3,2.2,68,0.00,,,0.00,WSDL version 420,2013-06-25 03:38:00,
2013-06-24 23:47:00,72.7,62.7,29.18,SW,225,0.4,3.6,71,0.00,,,0.00,WSDL version 420,2013-06-25 03:47:00,
2013-06-24 23:53:00,72.8,62.9,29.18,SW,215,0.3,2.2,71,0.00,,,0.00,WSDL version 420,2013-06-25 03:53:00,
2013-06-24 23:59:00,72.9,62.6,29.15,SSW,208,0.0,2.2,71,0.00,,,0.00,WSDL version 420,2013-06-25 03:59:00,